Location: Sungai Buloh
(3.1000°N, 113.0000°E)
Time: 17:07:02
(UTC+00:00)

Cosmos 407 Rocket - Pass Details

Date: 12 January 2026
Orbit: 738 x 782 km, 74.0° (Epoch: 11 February)

Event Time Altitude Azimuth Distance (km) Brightness Sun altitude
Rises 22:14:47 0° 187° (S) 3,169 6.9 -6.2°
Reaches altitude 10° 22:17:09 10° 184° (S) 2,243 6.2 -5.6°
Maximum altitude 22:22:10 65° 102° (ESE) 806 4.0 -4.5°
Drops below altitude 10° 22:27:11 10° 20° (NNE) 2,240 5.9 -3.3°
Sets 22:29:33 0° 18° (NNE) 3,164 6.7 -2.8°
